This demonstration page uses our WeatherBlox Daily Observations layout. Learn more.

Left ArrowRight Arrow

39.01783, -85.05884

Hourly Observations for August 29, 2021

Temp ( °F °C ) Dew Point ( °F °C ) Humidity (%) Winds ( mph kmh ) Pressure ( in mb ) Visibility ( mi km ) Precip ( " mm )
12:52 am 00:52 Partly Cloudy 76 24.4 70 21.1 82 82 SSW 6 9 30.13 1020 10 16 0.00 0.00
1:52 am 01:52 Partly Cloudy 74 23.3 70 21.1 88 88 S 6 9 30.11 1020 10 16 0.00 0.00
2:52 am 02:52 Partly Cloudy 75 23.9 70 21.1 84 84 S 3 6 30.09 1019 10 16 0.00 0.00
3:52 am 03:52 Clear 74 23.3 70 21.1 88 88 SSW 3 6 30.09 1019 10 16 0.00 0.00
4:52 am 04:52 Partly Cloudy 73 22.8 69 20.6 87 87 S 6 9 30.10 1019 10 16 0.00 0.00
5:52 am 05:52 Partly Cloudy 74 23.3 69 20.6 85 85 Calm 30.11 1020 10 16 0.00 0.00
6:52 am 06:52 Mostly Cloudy 74 23.3 69 20.6 85 85 SW 5 7 30.12 1020 10 16 0.00 0.00
7:52 am 07:52 Mostly Cloudy 74 23.3 70 21.1 88 88 S 3 6 30.13 1020 10 16 0.00 0.00
8:52 am 08:52 Mostly Cloudy 77 25 71 21.7 82 82 S 6 9 30.14 1021 10 16 0.00 0.00
9:52 am 09:52 Partly Cloudy 80 26.7 69 20.6 69 69 SSW 7 11 30.14 1021 10 16 0.00 0.00
10:52 am 10:52 Partly Cloudy 83 28.3 72 22.2 70 70 SSW 9 15 30.13 1020 10 16 0.00 0.00
11:52 am 11:52 Partly Cloudy 86 30 71 21.7 61 61 SW 8 13 30.12 1020 10 16 0.00 0.00
12:52 pm 12:52 Mostly Cloudy 84 28.9 70 21.1 63 63 SW 8 13 30.10 1019 10 16 0.00 0.00
1:52 pm 13:52 Mostly Cloudy 87 30.6 71 21.7 59 59 WNW 7 11 30.08 1019 10 16 0.00 0.00
1:59 pm 13:59 Mostly Cloudy with Nearby Thunderstorms 88 31.1 71 21.7 57 57 W 9 15 30.05 1018 10 16 0.00 0.00
2:11 pm 14:11 Mostly Cloudy 88 31.1 71 21.7 57 57 W 7 11 30.04 1017 10 16 0.00 0.00
2:52 pm 14:52 Mostly Cloudy 90 32.2 69 20.6 50 50 SW 12 19 30.04 1017 10 16 0.00 0.00
3:52 pm 15:52 Mostly Cloudy 89 31.7 70 21.1 53 53 WNW 12 19 30.02 1017 10 16 0.00 0.00
4:52 pm 16:52 Partly Cloudy 88 31.1 70 21.1 55 55 W 8 13 30.01 1016 10 16 0.00 0.00
5:52 pm 17:52 Mostly Cloudy 88 31.1 70 21.1 55 55 SSW 6 9 30.00 1016 10 16 0.00 0.00
6:52 pm 18:52 Partly Cloudy 85 29.4 71 21.7 63 63 SW 5 7 29.99 1016 10 16 0.00 0.00
7:52 pm 19:52 Mostly Sunny 84 28.9 70 21.1 63 63 SW 5 7 30.00 1016 10 16 0.00 0.00
8:52 pm 20:52 Mostly Clear 82 27.8 69 20.6 65 65 SW 6 9 30.01 1016 10 16 0.00 0.00
9:52 pm 21:52 Mostly Clear 79 26.1 70 21.1 74 74 S 6 9 30.03 1017 10 16 0.00 0.00
10:52 pm 22:52 Clear 77 25 70 21.1 79 79 S 7 11 30.02 1017 10 16 0.00 0.00
11:52 pm 23:52 Mostly Clear 78 25.6 70 21.1 76 76 SSW 6 9 30.03 1017 10 16 0.00 0.00

Powered by AerisWeather